Year,Month,Day,Hour,Minute,Value (Times are PST for temperature in C)
2022,04,17,00,00,28.40
2022,04,17,00,01,28.20
2022,04,17,00,02,28.00
2022,04,17,00,03,27.90
2022,04,17,00,04,27.80
2022,04,17,00,05,27.70
2022,04,17,00,06,27.60
2022,04,17,00,07,27.50
2022,04,17,00,08,27.50
2022,04,17,00,09,27.40
2022,04,17,00,10,27.30
2022,04,17,00,11,27.30
2022,04,17,00,12,27.30
2022,04,17,00,13,27.30
2022,04,17,00,14,27.20
2022,04,17,00,15,27.20
2022,04,17,00,16,27.20
2022,04,17,00,17,27.20
2022,04,17,00,18,27.20
2022,04,17,00,19,27.10
2022,04,17,00,20,27.20
2022,04,17,00,21,27.20
2022,04,17,00,22,27.20
2022,04,17,00,23,27.20
2022,04,17,00,24,27.10
2022,04,17,00,25,27.10
2022,04,17,00,26,27.00
2022,04,17,00,27,27.00
2022,04,17,00,28,26.90
2022,04,17,00,29,26.90
2022,04,17,00,30,26.80
2022,04,17,00,31,26.80
2022,04,17,00,32,26.80
2022,04,17,00,33,26.80
2022,04,17,00,34,26.70
2022,04,17,00,35,26.70
2022,04,17,00,36,26.70
2022,04,17,00,37,26.70
2022,04,17,00,38,26.60
2022,04,17,00,39,26.60
2022,04,17,00,40,26.60
2022,04,17,00,41,26.60
2022,04,17,00,42,26.60
2022,04,17,00,43,26.60
2022,04,17,00,44,26.50
2022,04,17,00,45,26.60
2022,04,17,00,46,26.60
2022,04,17,00,47,26.70
2022,04,17,00,48,26.70
2022,04,17,00,49,26.80
2022,04,17,00,50,26.90
2022,04,17,00,51,26.90
2022,04,17,00,52,27.00
2022,04,17,00,53,27.00
2022,04,17,00,54,27.10
2022,04,17,00,55,27.10
2022,04,17,00,56,27.10
2022,04,17,00,57,27.00
2022,04,17,00,58,27.00
2022,04,17,00,59,26.90
2022,04,17,01,00,26.90
2022,04,17,01,01,26.90
2022,04,17,01,02,26.80
2022,04,17,01,03,26.80
2022,04,17,01,04,26.70
2022,04,17,01,05,26.60
2022,04,17,01,06,26.50
2022,04,17,01,07,26.40
2022,04,17,01,08,26.50
2022,04,17,01,09,26.50
2022,04,17,01,10,26.50
2022,04,17,01,11,26.50
2022,04,17,01,12,26.50
2022,04,17,01,13,26.40
2022,04,17,01,14,26.40
2022,04,17,01,15,26.30
2022,04,17,01,16,26.30
2022,04,17,01,17,26.20
2022,04,17,01,18,26.20
2022,04,17,01,19,26.20
2022,04,17,01,20,26.20
2022,04,17,01,21,26.20
2022,04,17,01,22,26.20
2022,04,17,01,23,26.20
2022,04,17,01,24,26.10
2022,04,17,01,25,26.10
2022,04,17,01,26,26.10
2022,04,17,01,27,26.00
2022,04,17,01,28,26.00
2022,04,17,01,29,26.00
2022,04,17,01,30,25.90
2022,04,17,01,31,25.90
2022,04,17,01,32,25.80
2022,04,17,01,33,25.80
2022,04,17,01,34,25.80
2022,04,17,01,35,25.70
2022,04,17,01,36,25.70
2022,04,17,01,37,25.70
2022,04,17,01,38,25.70
2022,04,17,01,39,25.70
2022,04,17,01,40,25.70
2022,04,17,01,41,25.70
2022,04,17,01,42,25.70
2022,04,17,01,43,25.70
2022,04,17,01,44,25.70
2022,04,17,01,45,25.70
2022,04,17,01,46,25.70
2022,04,17,01,47,25.80
2022,04,17,01,48,25.80
2022,04,17,01,49,25.90
2022,04,17,01,50,25.90
2022,04,17,01,51,25.90
2022,04,17,01,52,25.90
2022,04,17,01,53,25.90
2022,04,17,01,54,25.90
2022,04,17,01,55,25.90
2022,04,17,01,56,25.80
2022,04,17,01,57,25.80
2022,04,17,01,58,25.80
2022,04,17,01,59,25.80
2022,04,17,02,00,25.80
2022,04,17,02,01,25.80
2022,04,17,02,02,25.90
2022,04,17,02,03,25.90
2022,04,17,02,04,25.90
2022,04,17,02,05,26.00
2022,04,17,02,06,26.00
2022,04,17,02,07,26.10
2022,04,17,02,08,26.20
2022,04,17,02,09,26.30
2022,04,17,02,10,26.30
2022,04,17,02,11,26.40
2022,04,17,02,12,26.50
2022,04,17,02,13,26.60
2022,04,17,02,14,26.60
2022,04,17,02,15,26.60
2022,04,17,02,16,26.60
2022,04,17,02,17,26.60
2022,04,17,02,18,26.60
2022,04,17,02,19,26.60
2022,04,17,02,20,26.60
2022,04,17,02,21,26.60
2022,04,17,02,22,26.60
2022,04,17,02,23,26.60
2022,04,17,02,24,26.60
2022,04,17,02,25,26.60
2022,04,17,02,26,26.60
2022,04,17,02,27,26.50
2022,04,17,02,28,26.50
2022,04,17,02,29,26.40
2022,04,17,02,30,26.30
2022,04,17,02,31,26.20
2022,04,17,02,32,26.10
2022,04,17,02,33,26.00
2022,04,17,02,34,25.90
2022,04,17,02,35,25.90
2022,04,17,02,36,25.90
2022,04,17,02,37,25.80
2022,04,17,02,38,25.70
2022,04,17,02,39,25.70
2022,04,17,02,40,25.60
2022,04,17,02,41,25.50
2022,04,17,02,42,25.50
2022,04,17,02,43,25.40
2022,04,17,02,44,25.40
2022,04,17,02,45,25.40
2022,04,17,02,46,25.30
2022,04,17,02,47,25.30
2022,04,17,02,48,25.20
2022,04,17,02,49,25.10
2022,04,17,02,50,25.10
2022,04,17,02,51,25.00
2022,04,17,02,52,25.00
2022,04,17,02,53,24.90
2022,04,17,02,54,24.80
2022,04,17,02,55,24.80
2022,04,17,02,56,24.80
2022,04,17,02,57,24.70
2022,04,17,02,58,24.70
2022,04,17,02,59,24.70
2022,04,17,03,00,24.60
2022,04,17,03,01,24.60
2022,04,17,03,02,24.60
2022,04,17,03,03,24.60
2022,04,17,03,04,24.60
2022,04,17,03,05,24.50
2022,04,17,03,06,24.50
2022,04,17,03,07,24.40
2022,04,17,03,08,24.40
2022,04,17,03,09,24.40
2022,04,17,03,10,24.30
2022,04,17,03,11,24.30
2022,04,17,03,12,24.30
2022,04,17,03,13,24.20
2022,04,17,03,14,24.20
2022,04,17,03,15,24.20
2022,04,17,03,16,24.20
2022,04,17,03,17,24.20
2022,04,17,03,18,24.10
2022,04,17,03,19,24.10
2022,04,17,03,20,24.00
2022,04,17,03,21,24.00
2022,04,17,03,22,23.90
2022,04,17,03,23,23.90
2022,04,17,03,24,23.80
2022,04,17,03,25,23.80
2022,04,17,03,26,23.70
2022,04,17,03,27,23.70
2022,04,17,03,28,23.60
2022,04,17,03,29,23.60
2022,04,17,03,30,23.60
2022,04,17,03,31,23.60
2022,04,17,03,32,23.60
2022,04,17,03,33,23.60
2022,04,17,03,34,23.60
2022,04,17,03,35,23.50
2022,04,17,03,36,23.50
2022,04,17,03,37,23.40
2022,04,17,03,38,23.40
2022,04,17,03,39,23.30
2022,04,17,03,40,23.30
2022,04,17,03,41,23.20
2022,04,17,03,42,23.10
2022,04,17,03,43,23.10
2022,04,17,03,44,23.00
2022,04,17,03,45,23.00
2022,04,17,03,46,22.90
2022,04,17,03,47,22.90
2022,04,17,03,48,22.90
2022,04,17,03,49,22.90
2022,04,17,03,50,22.80
2022,04,17,03,51,22.80
2022,04,17,03,52,22.70
2022,04,17,03,53,22.70
2022,04,17,03,54,22.70
2022,04,17,03,55,22.70
2022,04,17,03,56,22.70
2022,04,17,03,57,22.70
2022,04,17,03,58,22.70
2022,04,17,03,59,22.70
2022,04,17,04,00,22.70
2022,04,17,04,01,22.70
2022,04,17,04,02,22.70
2022,04,17,04,03,22.70
2022,04,17,04,04,22.60
2022,04,17,04,05,22.60
2022,04,17,04,06,22.60
2022,04,17,04,07,22.60
2022,04,17,04,08,22.60
2022,04,17,04,09,22.60
2022,04,17,04,10,22.60
2022,04,17,04,11,22.50
2022,04,17,04,12,22.50
2022,04,17,04,13,22.40
2022,04,17,04,14,22.40
2022,04,17,04,15,22.40
2022,04,17,04,16,22.40
2022,04,17,04,17,22.40
2022,04,17,04,18,22.40
2022,04,17,04,19,22.40
2022,04,17,04,20,22.40
2022,04,17,04,21,22.40
2022,04,17,04,22,22.40
2022,04,17,04,23,22.40
2022,04,17,04,24,22.40
2022,04,17,04,25,22.40
2022,04,17,04,26,22.40
2022,04,17,04,27,22.40
2022,04,17,04,28,22.30
2022,04,17,04,29,22.30
2022,04,17,04,30,22.30
2022,04,17,04,31,22.30
2022,04,17,04,32,22.30
2022,04,17,04,33,22.30
2022,04,17,04,34,22.30
2022,04,17,04,35,22.30
2022,04,17,04,36,22.30
2022,04,17,04,37,22.20
2022,04,17,04,38,22.20
2022,04,17,04,39,22.20
2022,04,17,04,40,22.20
2022,04,17,04,41,22.20
2022,04,17,04,42,22.20
2022,04,17,04,43,22.20
2022,04,17,04,44,22.20
2022,04,17,04,45,22.20
2022,04,17,04,46,22.10
2022,04,17,04,47,22.10
2022,04,17,04,48,22.10
2022,04,17,04,49,22.20
2022,04,17,04,50,22.20
2022,04,17,04,51,22.30
2022,04,17,04,52,22.30
2022,04,17,04,53,22.20
2022,04,17,04,54,22.20
2022,04,17,04,55,22.20
2022,04,17,04,56,22.10
2022,04,17,04,57,22.10
2022,04,17,04,58,22.10
2022,04,17,04,59,22.00
2022,04,17,05,00,22.00
2022,04,17,05,01,22.00
2022,04,17,05,02,22.00
2022,04,17,05,03,22.10
2022,04,17,05,04,22.20
2022,04,17,05,05,22.30
2022,04,17,05,06,22.40
2022,04,17,05,07,22.50
2022,04,17,05,08,22.40
2022,04,17,05,09,22.40
2022,04,17,05,10,22.40
2022,04,17,05,11,22.40
2022,04,17,05,12,22.30
2022,04,17,05,13,22.30
2022,04,17,05,14,22.30
2022,04,17,05,15,22.20
2022,04,17,05,16,22.20
2022,04,17,05,17,22.20
2022,04,17,05,18,22.10
2022,04,17,05,19,22.10
2022,04,17,05,20,22.10
2022,04,17,05,21,22.10
2022,04,17,05,22,22.10
2022,04,17,05,23,22.10
2022,04,17,05,24,22.10
2022,04,17,05,25,22.10
2022,04,17,05,26,22.00
2022,04,17,05,27,22.10
2022,04,17,05,28,22.10
2022,04,17,05,29,22.10
2022,04,17,05,30,22.10
2022,04,17,05,31,22.10
2022,04,17,05,32,22.10
2022,04,17,05,33,22.10
2022,04,17,05,34,22.00
2022,04,17,05,35,22.00
2022,04,17,05,36,22.00
2022,04,17,05,37,21.90
2022,04,17,05,38,21.90
2022,04,17,05,39,21.90
2022,04,17,05,40,21.80
2022,04,17,05,41,21.80
2022,04,17,05,42,21.80
2022,04,17,05,43,21.70
2022,04,17,05,44,21.70
2022,04,17,05,45,21.60
2022,04,17,05,46,21.60
2022,04,17,05,47,21.60
2022,04,17,05,48,21.60
2022,04,17,05,49,21.50
2022,04,17,05,50,21.50
2022,04,17,05,51,21.50
2022,04,17,05,52,21.40
2022,04,17,05,53,21.50
2022,04,17,05,54,21.40
2022,04,17,05,55,21.50
2022,04,17,05,56,21.40
2022,04,17,05,57,21.40
2022,04,17,05,58,21.40
2022,04,17,05,59,21.40
2022,04,17,06,00,21.40
2022,04,17,06,01,21.30
2022,04,17,06,02,21.30
2022,04,17,06,03,21.30
2022,04,17,06,04,21.30
2022,04,17,06,05,21.30
2022,04,17,06,06,21.20
2022,04,17,06,07,21.20
2022,04,17,06,08,21.20
2022,04,17,06,09,21.20
2022,04,17,06,10,21.20
2022,04,17,06,11,21.20
2022,04,17,06,12,21.20
2022,04,17,06,13,21.20
2022,04,17,06,14,21.20
2022,04,17,06,15,21.20
2022,04,17,06,16,21.20
2022,04,17,06,17,21.20
2022,04,17,06,18,21.10
2022,04,17,06,19,21.10
2022,04,17,06,20,21.10
2022,04,17,06,21,21.10
2022,04,17,06,22,21.10
2022,04,17,06,23,21.10
2022,04,17,06,24,21.10
2022,04,17,06,25,21.10
2022,04,17,06,26,21.10
2022,04,17,06,27,21.10
2022,04,17,06,28,21.10
2022,04,17,06,29,21.10
2022,04,17,06,30,21.10
2022,04,17,06,31,21.20
2022,04,17,06,32,21.20
2022,04,17,06,33,21.20
2022,04,17,06,34,21.20
2022,04,17,06,35,21.20
2022,04,17,06,36,21.20
2022,04,17,06,37,21.20
2022,04,17,06,38,21.20
2022,04,17,06,39,21.20
2022,04,17,06,40,21.20
2022,04,17,06,41,21.30
2022,04,17,06,42,21.30
2022,04,17,06,43,21.30
2022,04,17,06,44,21.30
2022,04,17,06,45,21.30
2022,04,17,06,46,21.40
2022,04,17,06,47,21.40
2022,04,17,06,48,21.50
2022,04,17,06,49,21.60
2022,04,17,06,50,21.60
2022,04,17,06,51,21.70
2022,04,17,06,52,21.70
2022,04,17,06,53,21.80
2022,04,17,06,54,21.80
2022,04,17,06,55,21.90
2022,04,17,06,56,21.90
2022,04,17,06,57,22.00
2022,04,17,06,58,22.10
2022,04,17,06,59,22.10
2022,04,17,07,00,22.10
2022,04,17,07,01,22.20
2022,04,17,07,02,22.30
2022,04,17,07,03,22.40
2022,04,17,07,04,22.40
2022,04,17,07,05,22.50
2022,04,17,07,06,22.60
2022,04,17,07,07,22.70
2022,04,17,07,08,22.80
2022,04,17,07,09,22.90
2022,04,17,07,10,23.00
2022,04,17,07,11,23.10
2022,04,17,07,12,23.10
2022,04,17,07,13,23.20
2022,04,17,07,14,23.30
2022,04,17,07,15,23.30
2022,04,17,07,16,23.30
2022,04,17,07,17,23.40
2022,04,17,07,18,23.40
2022,04,17,07,19,23.40
2022,04,17,07,20,23.50
2022,04,17,07,21,23.50
2022,04,17,07,22,23.60
2022,04,17,07,23,23.60
2022,04,17,07,24,23.60
2022,04,17,07,25,23.60
2022,04,17,07,26,23.70
2022,04,17,07,27,23.70
2022,04,17,07,28,23.70
2022,04,17,07,29,23.70
2022,04,17,07,30,23.80
2022,04,17,07,31,23.80
2022,04,17,07,32,23.80
2022,04,17,07,33,23.80
2022,04,17,07,34,23.90
2022,04,17,07,35,23.90
2022,04,17,07,36,24.00
2022,04,17,07,37,24.00
2022,04,17,07,38,24.00
2022,04,17,07,39,24.10
2022,04,17,07,40,24.10
2022,04,17,07,41,24.20
2022,04,17,07,42,24.20
2022,04,17,07,43,24.20
2022,04,17,07,44,24.30
2022,04,17,07,45,24.30
2022,04,17,07,46,24.40
2022,04,17,07,47,24.40
2022,04,17,07,48,24.50
2022,04,17,07,49,24.60
2022,04,17,07,50,24.70
2022,04,17,07,51,24.70
2022,04,17,07,52,24.80
2022,04,17,07,53,24.90
2022,04,17,07,54,24.90
2022,04,17,07,55,25.00
2022,04,17,07,56,25.10
2022,04,17,07,57,25.10
2022,04,17,07,58,25.20
2022,04,17,07,59,25.30
2022,04,17,08,00,25.30
2022,04,17,08,01,25.40
2022,04,17,08,02,25.50
2022,04,17,08,03,25.60
2022,04,17,08,04,25.60
2022,04,17,08,05,25.70
2022,04,17,08,06,25.70
2022,04,17,08,07,25.80
2022,04,17,08,08,25.80
2022,04,17,08,09,25.90
2022,04,17,08,10,25.90
2022,04,17,08,11,26.00
2022,04,17,08,12,26.00
2022,04,17,08,13,26.10
2022,04,17,08,14,26.20
2022,04,17,08,15,26.20
2022,04,17,08,16,26.30
2022,04,17,08,17,26.40
2022,04,17,08,18,26.40
2022,04,17,08,19,26.40
2022,04,17,08,20,26.50
2022,04,17,08,21,26.60
2022,04,17,08,22,26.60
2022,04,17,08,23,26.70
2022,04,17,08,24,26.70
2022,04,17,08,25,26.80
2022,04,17,08,26,26.80
2022,04,17,08,27,26.80
2022,04,17,08,28,26.90
2022,04,17,08,29,26.90
2022,04,17,08,30,26.90
2022,04,17,08,31,26.90
2022,04,17,08,32,27.00
2022,04,17,08,33,27.00
2022,04,17,08,34,27.00
2022,04,17,08,35,27.00
2022,04,17,08,36,27.10
2022,04,17,08,37,27.10
2022,04,17,08,38,27.10
2022,04,17,08,39,27.10
2022,04,17,08,40,27.10
2022,04,17,08,41,27.20
2022,04,17,08,42,27.30
2022,04,17,08,43,27.30
2022,04,17,08,44,27.40
2022,04,17,08,45,27.40
2022,04,17,08,46,27.50
2022,04,17,08,47,27.50
2022,04,17,08,48,27.60
2022,04,17,08,49,27.60
2022,04,17,08,50,27.70
2022,04,17,08,51,27.70
2022,04,17,08,52,27.80
2022,04,17,08,53,27.80
2022,04,17,08,54,27.80
2022,04,17,08,55,27.80
2022,04,17,08,56,27.90
2022,04,17,08,57,27.90
2022,04,17,08,58,28.00
2022,04,17,08,59,28.10
2022,04,17,09,00,28.20
2022,04,17,09,01,28.30
2022,04,17,09,02,28.60
2022,04,17,09,03,28.70
2022,04,17,09,04,28.80
2022,04,17,09,05,28.80
2022,04,17,09,06,28.90
2022,04,17,09,07,29.00
2022,04,17,09,08,29.10
2022,04,17,09,09,29.20
2022,04,17,09,10,29.30
2022,04,17,09,11,29.30
2022,04,17,09,12,29.40
2022,04,17,09,13,29.40
2022,04,17,09,14,29.50
2022,04,17,09,15,29.60
2022,04,17,09,16,29.60
2022,04,17,09,17,29.70
2022,04,17,09,18,29.80
2022,04,17,09,19,29.80
2022,04,17,09,20,29.80
2022,04,17,09,21,29.80
2022,04,17,09,22,29.90
2022,04,17,09,23,29.90
2022,04,17,09,24,29.90
2022,04,17,09,25,30.00
2022,04,17,09,26,30.00
2022,04,17,09,27,30.10
2022,04,17,09,28,30.10
2022,04,17,09,29,30.20
2022,04,17,09,30,30.30
2022,04,17,09,31,30.30
2022,04,17,09,32,30.50
2022,04,17,09,33,30.70
2022,04,17,09,34,30.90
2022,04,17,09,35,31.00
2022,04,17,09,36,31.20
2022,04,17,09,37,31.30
2022,04,17,09,38,31.50
2022,04,17,09,39,31.60
2022,04,17,09,40,31.70
2022,04,17,09,41,31.80
2022,04,17,09,42,32.00
2022,04,17,09,43,32.10
2022,04,17,09,44,32.30
2022,04,17,09,45,32.40
2022,04,17,09,46,32.60
2022,04,17,09,47,32.70
2022,04,17,09,48,32.80
2022,04,17,09,49,32.80
2022,04,17,09,50,32.90
2022,04,17,09,51,32.90
2022,04,17,09,52,33.00
2022,04,17,09,53,33.00
2022,04,17,09,54,33.00
2022,04,17,09,55,33.10
2022,04,17,09,56,33.20
2022,04,17,09,57,33.20
2022,04,17,09,58,33.20
2022,04,17,09,59,33.20
2022,04,17,10,00,33.20
2022,04,17,10,01,33.20
2022,04,17,10,02,33.30
2022,04,17,10,03,33.40
2022,04,17,10,04,33.50
2022,04,17,10,05,33.60
2022,04,17,10,06,33.60
2022,04,17,10,07,33.60
2022,04,17,10,08,33.50
2022,04,17,10,09,33.60
2022,04,17,10,10,33.50
2022,04,17,10,11,33.50
2022,04,17,10,12,33.50
2022,04,17,10,13,33.60
2022,04,17,10,14,33.70
2022,04,17,10,15,33.80
2022,04,17,10,16,33.90
2022,04,17,10,17,33.90
2022,04,17,10,18,33.90
2022,04,17,10,19,33.90
2022,04,17,10,20,33.90
2022,04,17,10,21,34.00
2022,04,17,10,22,34.10
2022,04,17,10,23,34.20
2022,04,17,10,24,34.30
2022,04,17,10,25,34.40
2022,04,17,10,26,34.30
2022,04,17,10,27,34.30
2022,04,17,10,28,34.30
2022,04,17,10,29,34.30
2022,04,17,10,30,34.40
2022,04,17,10,31,34.30
2022,04,17,10,32,34.20
2022,04,17,10,33,34.20
2022,04,17,10,34,34.30
2022,04,17,10,35,34.40
2022,04,17,10,36,34.40
2022,04,17,10,37,34.40
2022,04,17,10,38,34.40
2022,04,17,10,39,34.50
2022,04,17,10,40,34.50
2022,04,17,10,41,34.60
2022,04,17,10,42,34.60
2022,04,17,10,43,34.60
2022,04,17,10,44,34.70
2022,04,17,10,45,34.70
2022,04,17,10,46,34.80
2022,04,17,10,47,34.80
2022,04,17,10,48,34.80
2022,04,17,10,49,34.90
2022,04,17,10,50,34.90
2022,04,17,10,51,35.00
2022,04,17,10,52,35.10
2022,04,17,10,53,35.10
2022,04,17,10,54,35.10
2022,04,17,10,55,35.10
2022,04,17,10,56,35.00
2022,04,17,10,57,34.90
2022,04,17,10,58,34.80
2022,04,17,10,59,34.70
2022,04,17,11,00,34.70
2022,04,17,11,01,34.60
2022,04,17,11,02,34.60
2022,04,17,11,03,34.70
2022,04,17,11,04,34.80
2022,04,17,11,05,34.70
2022,04,17,11,06,34.70
2022,04,17,11,07,34.80
2022,04,17,11,08,34.80
2022,04,17,11,09,34.80
2022,04,17,11,10,34.80
2022,04,17,11,11,34.80
2022,04,17,11,12,34.90
2022,04,17,11,13,35.00
2022,04,17,11,14,35.10
2022,04,17,11,15,35.10
2022,04,17,11,16,35.00
2022,04,17,11,17,34.90
2022,04,17,11,18,34.90
2022,04,17,11,19,34.90
2022,04,17,11,20,34.90
2022,04,17,11,21,34.80
2022,04,17,11,22,34.80
2022,04,17,11,23,34.80
2022,04,17,11,24,34.80
2022,04,17,11,25,34.90
2022,04,17,11,26,34.90
2022,04,17,11,27,34.90
2022,04,17,11,28,34.90
2022,04,17,11,29,35.00
2022,04,17,11,30,34.90
2022,04,17,11,31,34.90
2022,04,17,11,32,35.00
2022,04,17,11,33,35.10
2022,04,17,11,34,35.20
2022,04,17,11,35,35.20
2022,04,17,11,36,35.10
2022,04,17,11,37,35.10
2022,04,17,11,38,35.20
2022,04,17,11,39,35.40
2022,04,17,11,40,35.40
2022,04,17,11,41,35.40
2022,04,17,11,42,35.30
2022,04,17,11,43,35.20
2022,04,17,11,44,35.30
2022,04,17,11,45,35.30
2022,04,17,11,46,35.30
2022,04,17,11,47,35.20
2022,04,17,11,48,35.00
2022,04,17,11,49,34.90
2022,04,17,11,50,34.80
2022,04,17,11,51,34.70
2022,04,17,11,52,34.70
2022,04,17,11,53,34.80
2022,04,17,11,54,34.90
2022,04,17,11,55,35.00
2022,04,17,11,56,35.00
2022,04,17,11,57,35.10
2022,04,17,11,58,35.00
2022,04,17,11,59,35.00
2022,04,17,12,00,34.90
2022,04,17,12,01,35.00
2022,04,17,12,02,35.10
2022,04,17,12,03,35.10
2022,04,17,12,04,35.20
2022,04,17,12,05,35.30
2022,04,17,12,06,35.50
2022,04,17,12,07,35.60
2022,04,17,12,08,35.60
2022,04,17,12,09,35.70
2022,04,17,12,10,35.80
2022,04,17,12,11,35.80
2022,04,17,12,12,35.80
2022,04,17,12,13,35.80
2022,04,17,12,14,35.80
2022,04,17,12,15,35.80
2022,04,17,12,16,35.80
2022,04,17,12,17,35.70
2022,04,17,12,18,35.80
2022,04,17,12,19,35.80
2022,04,17,12,20,35.80
2022,04,17,12,21,35.90
2022,04,17,12,22,35.90
2022,04,17,12,23,36.00
2022,04,17,12,24,36.20
2022,04,17,12,25,36.30
2022,04,17,12,26,36.30
2022,04,17,12,27,36.30
2022,04,17,12,28,36.40
2022,04,17,12,29,36.40
2022,04,17,12,30,36.50
2022,04,17,12,31,36.50
2022,04,17,12,32,36.50
2022,04,17,12,33,36.70
2022,04,17,12,34,36.80
2022,04,17,12,35,36.90
2022,04,17,12,36,37.10
2022,04,17,12,37,37.20
2022,04,17,12,38,37.20
2022,04,17,12,39,37.10
2022,04,17,12,40,37.10
2022,04,17,12,41,37.10
2022,04,17,12,42,37.10
2022,04,17,12,43,37.10
2022,04,17,12,44,37.30
2022,04,17,12,45,37.30
2022,04,17,12,46,37.30
2022,04,17,12,47,37.30
2022,04,17,12,48,37.30
2022,04,17,12,49,37.30
2022,04,17,12,50,37.30
2022,04,17,12,51,37.20
2022,04,17,12,52,37.20
2022,04,17,12,53,37.20
2022,04,17,12,54,37.10
2022,04,17,12,55,37.10
2022,04,17,12,56,37.00
2022,04,17,12,57,36.90
2022,04,17,12,58,36.70
2022,04,17,12,59,36.60
2022,04,17,13,00,36.60
2022,04,17,13,01,36.60
2022,04,17,13,02,36.50
2022,04,17,13,03,36.50
2022,04,17,13,04,36.60
2022,04,17,13,05,36.80
2022,04,17,13,06,36.90
2022,04,17,13,07,36.90
2022,04,17,13,08,37.00
2022,04,17,13,09,37.00
2022,04,17,13,10,37.00
2022,04,17,13,11,37.00
2022,04,17,13,12,37.00
2022,04,17,13,13,37.00
2022,04,17,13,14,36.90
2022,04,17,13,15,36.90
2022,04,17,13,16,36.90
2022,04,17,13,17,36.90
2022,04,17,13,18,36.90
2022,04,17,13,19,36.80
2022,04,17,13,20,36.80
2022,04,17,13,21,36.70
2022,04,17,13,22,36.80
2022,04,17,13,23,36.80
2022,04,17,13,24,36.90
2022,04,17,13,25,36.80
2022,04,17,13,26,36.80
2022,04,17,13,27,36.70
2022,04,17,13,28,36.60
2022,04,17,13,29,36.60
2022,04,17,13,30,36.50
2022,04,17,13,31,36.40
2022,04,17,13,32,36.40
2022,04,17,13,33,36.30
2022,04,17,13,34,36.30
2022,04,17,13,35,36.30
2022,04,17,13,36,36.20
2022,04,17,13,37,36.20
2022,04,17,13,38,36.20
2022,04,17,13,39,36.30
2022,04,17,13,40,36.30
2022,04,17,13,41,36.40
2022,04,17,13,42,36.50
2022,04,17,13,43,36.70
2022,04,17,13,44,36.80
2022,04,17,13,45,36.70
2022,04,17,13,46,36.70
2022,04,17,13,47,36.70
2022,04,17,13,48,36.60
2022,04,17,13,49,36.50
2022,04,17,13,50,36.40
2022,04,17,13,51,36.30
2022,04,17,13,52,36.20
2022,04,17,13,53,36.30
2022,04,17,13,54,36.20
2022,04,17,13,55,36.10
2022,04,17,13,56,36.20
2022,04,17,13,57,36.20
2022,04,17,13,58,36.10
2022,04,17,13,59,36.00
2022,04,17,14,00,36.00
2022,04,17,14,01,36.00
2022,04,17,14,02,35.90
2022,04,17,14,03,35.90
2022,04,17,14,04,35.80
2022,04,17,14,05,35.80
2022,04,17,14,06,35.70
2022,04,17,14,07,35.70
2022,04,17,14,08,35.70
2022,04,17,14,09,35.70
2022,04,17,14,10,35.80
2022,04,17,14,11,35.90
2022,04,17,14,12,35.90
2022,04,17,14,13,35.90
2022,04,17,14,14,36.00
2022,04,17,14,15,36.10
2022,04,17,14,16,36.10
2022,04,17,14,17,36.10
2022,04,17,14,18,36.20
2022,04,17,14,19,36.30
2022,04,17,14,20,36.40
2022,04,17,14,21,36.50
2022,04,17,14,22,36.60
2022,04,17,14,23,36.60
2022,04,17,14,24,36.70
2022,04,17,14,25,36.70
2022,04,17,14,26,36.80
2022,04,17,14,27,36.70
2022,04,17,14,28,36.80
2022,04,17,14,29,36.80
2022,04,17,14,30,36.80
2022,04,17,14,31,36.90
2022,04,17,14,32,37.00
2022,04,17,14,33,37.00
2022,04,17,14,34,36.90
2022,04,17,14,35,36.90
2022,04,17,14,36,36.90
2022,04,17,14,37,37.00
2022,04,17,14,38,36.90
2022,04,17,14,39,36.80
2022,04,17,14,40,36.70
2022,04,17,14,41,36.70
2022,04,17,14,42,36.70
2022,04,17,14,43,36.70
2022,04,17,14,44,36.70
2022,04,17,14,45,36.70
2022,04,17,14,46,36.80
2022,04,17,14,47,36.70
2022,04,17,14,48,36.70
2022,04,17,14,49,36.80
2022,04,17,14,50,36.70
2022,04,17,14,51,36.70
2022,04,17,14,52,36.80
2022,04,17,14,53,36.80
2022,04,17,14,54,37.00
2022,04,17,14,55,37.10
2022,04,17,14,56,37.30
2022,04,17,14,57,37.40
2022,04,17,14,58,37.40
2022,04,17,14,59,37.50
2022,04,17,15,00,37.60
2022,04,17,15,01,37.50
2022,04,17,15,02,37.40
2022,04,17,15,03,37.20
2022,04,17,15,04,37.20
2022,04,17,15,05,37.20
2022,04,17,15,06,37.20
2022,04,17,15,07,37.20
2022,04,17,15,08,37.20
2022,04,17,15,09,37.10
2022,04,17,15,10,37.00
2022,04,17,15,11,37.00
2022,04,17,15,12,37.00
2022,04,17,15,13,37.00
2022,04,17,15,14,37.00
2022,04,17,15,15,36.90
2022,04,17,15,16,36.90
2022,04,17,15,17,36.80
2022,04,17,15,18,36.80
2022,04,17,15,19,36.80
2022,04,17,15,20,36.80
2022,04,17,15,21,36.80
2022,04,17,15,22,36.80
2022,04,17,15,23,36.80
2022,04,17,15,24,36.90
2022,04,17,15,25,36.90
2022,04,17,15,26,36.80
2022,04,17,15,27,36.80
2022,04,17,15,28,36.80
2022,04,17,15,29,36.70
2022,04,17,15,30,36.70
2022,04,17,15,31,36.70
2022,04,17,15,32,36.80
2022,04,17,15,33,36.80
2022,04,17,15,34,36.80
2022,04,17,15,35,36.80
2022,04,17,15,36,36.80
2022,04,17,15,37,36.90
2022,04,17,15,38,36.90
2022,04,17,15,39,36.90
2022,04,17,15,40,36.80
2022,04,17,15,41,36.80
2022,04,17,15,42,36.80
2022,04,17,15,43,36.80
2022,04,17,15,44,36.70
2022,04,17,15,45,36.70
2022,04,17,15,46,36.80
2022,04,17,15,47,36.80
2022,04,17,15,48,36.90
2022,04,17,15,49,36.90
2022,04,17,15,50,36.90
2022,04,17,15,51,36.90
2022,04,17,15,52,36.80
2022,04,17,15,53,36.80
2022,04,17,15,54,36.80
2022,04,17,15,55,36.90
2022,04,17,15,56,37.00
2022,04,17,15,57,37.00
2022,04,17,15,58,37.10
2022,04,17,15,59,37.10
2022,04,17,16,00,37.10
2022,04,17,16,01,37.10
2022,04,17,16,02,37.20
2022,04,17,16,03,37.20
2022,04,17,16,04,37.20
2022,04,17,16,05,37.30
2022,04,17,16,06,37.20
2022,04,17,16,07,37.20
2022,04,17,16,08,37.10
2022,04,17,16,09,37.10
2022,04,17,16,10,37.10
2022,04,17,16,11,37.00
2022,04,17,16,12,36.90
2022,04,17,16,13,36.80
2022,04,17,16,14,36.70
2022,04,17,16,15,36.60
2022,04,17,16,16,36.60
2022,04,17,16,17,36.60
2022,04,17,16,18,36.60
2022,04,17,16,19,36.50
2022,04,17,16,20,36.50
2022,04,17,16,21,36.60
2022,04,17,16,22,36.60
2022,04,17,16,23,36.80
2022,04,17,16,24,36.80
2022,04,17,16,25,36.80
2022,04,17,16,26,36.90
2022,04,17,16,27,36.80
2022,04,17,16,28,36.70
2022,04,17,16,29,36.70
2022,04,17,16,30,36.70
2022,04,17,16,31,36.70
2022,04,17,16,32,36.70
2022,04,17,16,33,36.80
2022,04,17,16,34,36.80
2022,04,17,16,35,36.80
2022,04,17,16,36,36.90
2022,04,17,16,37,36.90
2022,04,17,16,38,36.90
2022,04,17,16,39,36.90
2022,04,17,16,40,37.00
2022,04,17,16,41,37.00
2022,04,17,16,42,37.00
2022,04,17,16,43,37.00
2022,04,17,16,44,37.00
2022,04,17,16,45,37.00
2022,04,17,16,46,36.90
2022,04,17,16,47,36.80
2022,04,17,16,48,36.80
2022,04,17,16,49,36.80
2022,04,17,16,50,36.70
2022,04,17,16,51,36.70
2022,04,17,16,52,36.60
2022,04,17,16,53,36.60
2022,04,17,16,54,36.60
2022,04,17,16,55,36.60
2022,04,17,16,56,36.70
2022,04,17,16,57,36.80
2022,04,17,16,58,36.80
2022,04,17,16,59,36.90
2022,04,17,17,00,37.00
2022,04,17,17,01,37.10
2022,04,17,17,02,37.10
2022,04,17,17,03,37.10
2022,04,17,17,04,37.10
2022,04,17,17,05,37.20
2022,04,17,17,06,37.20
2022,04,17,17,07,37.20
2022,04,17,17,08,37.20
2022,04,17,17,09,37.10
2022,04,17,17,10,37.10
2022,04,17,17,11,37.20
2022,04,17,17,12,37.20
2022,04,17,17,13,37.20
2022,04,17,17,14,37.20
2022,04,17,17,15,37.20
2022,04,17,17,16,37.20
2022,04,17,17,17,37.20
2022,04,17,17,18,37.20
2022,04,17,17,19,37.20